Regional Weather Roundup
Issued by NWS

Home | Current Version | Previous Version | Text Only | Print | Product List | Glossary On
Versions: 1 2 3 4 5 6 7 8 9 10 11 12 13 14 15 16 17 18 19 20 21 22 23 24 25 26 27 28 29 30 31 32 33 34 35 36 37 38 39 40 41 42 43 44 45 46 47 48 49 50
968
ASUS43 KMKX 260821
RWRWI

WISCONSIN REGIONAL WEATHER ROUNDUP
NATIONAL WEATHER SERVICE MILWAUKEE/SULLIVAN WI
300 AM CDT TUE SEP 26 2017

NOTE: "FAIR" INDICATES FEW OR NO CLOUDS BELOW 12,000 FEET WITH NO
SIGNIFICANT WEATHER AND/OR OBSTRUCTIONS TO VISIBILITY.

WIZ001-002-006>008-014>016-023>028-260900-
NORTHWEST WISCONSIN

CITY           SKY/WX    TMP DP  RH WIND       PRES   REMARKS
SUPERIOR ARPT  LGT RAIN  57  56  98 NE13G20   29.95S
ASHLAND        LGT RAIN  56  55  97 NE15      29.96F FOG
HAYWARD        LGT RAIN  58  57  97 NE3       29.93F
SIREN          HVY RAIN  57  56  98 CALM      29.93F
CUMBERLAND     RAIN      55  55 100 CALM      29.93F
RICE LAKE      DRIZZLE   59  58  97 CALM      29.94S
CHETEK         CLOUDY    60  60 100 SE3       29.92F
LADYSMITH      FOG       61  60  97 CALM      29.94F VSB 1/2
EAU CLAIRE     CLOUDY    63  62  97 E3        29.90F
MENOMONIE      CLOUDY    61  61 100 CALM      29.93R
NEW RICHMOND   RAIN      58  57  98 CALM      29.93F
OSCEOLA        RAIN      57  57 100 CALM      29.95F
$$

WIZ003>005-009-010-017-018-260900-
NORTH CENTRAL WISCONSIN

CITY           SKY/WX    TMP DP  RH WIND       PRES   REMARKS
MANITOWISH WTR NOT AVBL
ARBOR VITAE    CLOUDY    62  61  96 SE3       29.94S FOG
WOODRUFF       CLOUDY    62  61  96 SE3       29.94S FOG
RHINELANDER    CLOUDY    63  63 100 CALM      29.95F FOG
EAGLE RIVER    CLOUDY    62  62 100 CALM      29.94F FOG
LAND O LAKES   FOG       61  61 100 E3        29.97S VSB 1/4
PHILLIPS       FOG       60  60 100 CALM      29.92F VSB 1/4
TOMAHAWK       DRIZZLE   62  61  97 CALM      29.94F
MEDFORD        CLOUDY    61  61  99 CALM      29.93S FOG
MERRILL        CLOUDY    63  63 100 CALM      29.94F FOG
$$

WIZ029-030-035-036-043>047-260900-
CENTRAL WISCONSIN

CITY           SKY/WX    TMP DP  RH WIND       PRES   REMARKS
WAUSAU         PTCLDY    65  65 100 SE6       29.92F
MOSINEE        CLOUDY    63  63 100 CALM      29.94F
MARSHFIELD     CLOUDY    64  62  93 S3        29.93S
STEVENS POINT  CLOUDY    64  64 100 S3        29.93F
WAUPACA        PTCLDY    65  64  96 CALM      29.93F
WAUTOMA        CLOUDY    66  63  90 SE3       29.93F
WISC RAPIDS    CLOUDY    65  65 100 CALM      29.93F
CAMP DOUGLAS   CLOUDY    66  66 100 SE3       29.90F FOG
$$

WIZ011>013-019>022-031-037>040-048>050-260900-
NORTHEAST WISCONSIN

CITY           SKY/WX    TMP DP  RH WIND       PRES   REMARKS
ANTIGO         LGT RAIN  64  64 100 SE5       29.95F
SHAWANO        MOCLDY    64  62  92 SW3       29.95S FOG
OCONTO         PTCLDY    59  58  96 CALM      29.93S
STURGEON BAY   CLEAR     64  61  90 CALM      29.93F
GREEN BAY      CLEAR     63  63 100 CALM      29.93F
MANITOWOC      NOT AVBL
APPLETON       CLEAR     63  61  94 CALM      29.93F
CLINTONVILLE   PTCLDY    63  61  94 CALM      29.93F
OSHKOSH        CLEAR     67  62  84 NW3       29.93F
$$

WIZ032>034-041-042-053>061-260900-
SOUTHWEST WISCONSIN

CITY           SKY/WX    TMP DP  RH WIND       PRES   REMARKS
LA CROSSE      CLOUDY    68  66  93 E6        29.90S
SPARTA         CLOUDY    60  60 100 CALM      29.91F
VIROQUA        CLOUDY    64  64 100 CALM      29.92F
BOSCOBEL       MOCLDY    67  65  93 CALM      29.92F FOG
PRAIRIE DU CHI LGT RAIN  66  64  94 E6        29.92F
PLATTEVILLE    PTCLDY    66  66 100 E7        29.94S
$$

WIZ056-057-062-063-064-067-068-260900-
SOUTH CENTRAL WISCONSIN

CITY           SKY/WX    TMP DP  RH WIND       PRES   REMARKS
REEDSBURG      MOCLDY    65  65 100 CALM      29.92F
BARABOO/DELLS  MOCLDY    65  63  93 CALM      29.94F
LONE ROCK      CLOUDY    66  66 100 E6        29.92F FOG
MINERAL POINT  CLOUDY    66  66 100 E5        29.94S
MADISON        CLEAR     66  62  87 CALM      29.93F
MIDDLETON      CLEAR     63  63 100 W3        29.95S
WATERTOWN      CLEAR     65  64  96 CALM      29.94S
MONROE         MOCLDY    64  63  94 NW5       29.96R
JANESVILLE     CLEAR     70  63  78 N5        29.93F
$$

WIZ051-052-058>065-066-070>072-260900-
SOUTHEAST WISCONSIN

CITY           SKY/WX    TMP DP  RH WIND       PRES   REMARKS
MILWAUKEE      CLEAR     73  59  61 NW9       29.93S
WAUKESHA       CLEAR     63  55  77 W3        29.95S
MILWAUKEE/TIMM CLEAR     64  55  72 CALM      29.94F
RACINE         CLEAR     67  65  93 S3        29.94F
BURLINGTON     CLEAR     63  61  91 CALM      29.94R
KENOSHA        MOCLDY    67  61  81 S5        29.93F
FOND DU LAC    CLEAR     66  60  81 CALM      29.95S
SHEBOYGAN      CLEAR     60  60 100 S5        29.93S
WEST BEND        N/A     61  59  94 CALM      29.94F
JUNEAU         CLEAR     65  62  90 CALM      29.95F
$$

LSZ147-162-260900-
LAKE SUPERIOR

STATION/POSITION TIME  TEMP    WIND        PRES    WAVE
                       AIR SEA DIR/SP/G            HT/PER
                 (UTC) (F)     (DEG/KT/KT) (MB)    (FT/S)
W MID LAKE BUOY  0750   56 56   30/ 17/ 19 1014.9F   5/ 6
DEVILS ISLAND    0800   56      50/ 22/ 25 1014.8F
PORT WING        0540   60      70/ 10/ 15 1015.2
SAXON HARBOR     0730   60      60/ 15/ 19 1013.9F
$$

LMZ867-665-643>646-260900-
LAKE MICHIGAN

STATION/POSITION TIME  TEMP    WIND        PRES    WAVE
                       AIR SEA DIR/SP/G            HT/PER
                 (UTC) (F)     (DEG/KT/KT) (MB)    (FT/S)
S GREEN BAY BUOY 0800   70 70  270/  6/  6 1013.5
N MID LAKE BUOY  0750   68 67  150/  4/  4 1013.9F   1
NORTHPORT PIER   0740   68     350/  6/  7 1013.2F
KEWAUNEE LAKESHO 0754   64     160/  1/  2 1012.8R
SHEBOYGAN LAKESH 0800   69      10/  2/  2 1013.2S
PORT WASHINGTON  0730   69     300/  3/  5 1014.2S
ATWATER BUOY     0709   68 63  150/  4/  6 1013.5F
MILWAUKEE LAKESH 0800   72     290/  3/  4   N/A
S MID LAKE BUOY  0750   74 71  170/ 10/ 10 1013.5F   0
KENOSHA   LAKESH 0800   74     190/  3/  3 1013.2
$$

TC  - TEMPERATURE IN CELSIUS
VSB - VISIBILITY IN STATUTE MILES
WCI - WIND CHILL INDEX
HX  - HEAT INDEX





USA.gov is the U.S. government's official web portal to all federal, state and local government web resources and services.